IEDINB57 Weather Reports


time (UTC)temp
C
wind
direction
speed
KPH
gust
KPH
rain 1hr
cm
rain 24hr
cm
rain mn
cm
humidity
%
barometer
mb
20260507232547 7 219 8.0 24.1 0.00 0.00 0.00 72 1013.1
20260507232047 7 193 11.3 24.1 0.00 0.00 0.00 72 1013.0
20260507231554 7 200 6.4 19.3 0.00 0.00 0.00 72 1013.0
20260507231049 7 222 8.0 20.9 0.00 0.00 0.00 72 1013.0
20260507230548 7 196 11.3 24.1 0.00 0.00 0.00 72 1012.9
20260507230054 7 192 9.7 24.1 0.00 0.00 0.00 72 1012.9
20260507225547 7 210 6.4 17.7 0.00 0.00 0.00 72 1013.1
20260507225051 7 178 8.0 24.1 0.00 0.00 0.00 72 1013.0
20260507224558 7 208 9.7 25.7 0.00 0.00 0.00 72 1012.9
20260507224048 7 192 11.3 25.7 0.00 0.00 0.00 72 1012.8
20260507223547 7 203 8.0 20.9 0.00 0.00 0.00 72 1012.8
20260507223052 7 179 8.0 19.3 0.00 0.00 0.00 72 1012.9
20260507222549 7 196 8.0 20.9 0.00 0.00 0.00 72 1012.9
20260507222048 7 221 8.0 20.9 0.00 0.00 0.00 72 1012.9
20260507221553 7 124 8.0 22.5 0.00 0.00 0.00 72 1012.8
20260507221047 7 190 6.4 22.5 0.00 0.00 0.00 72 1012.9
20260507220547 7 180 8.0 22.5 0.00 0.00 0.00 72 1012.8
20260507220056 7 195 8.0 20.9 0.00 0.00 0.00 72 1012.9
20260507215550 7 194 8.0 20.9 0.00 0.00 0.00 72 1012.8
20260507215047 7 192 8.0 22.5 0.00 0.00 0.00 72 1012.8
20260507214604 7 214 8.0 22.5 0.00 0.00 0.00 72 1012.9
20260507214048 7 211 8.0 24.1 0.00 0.00 0.00 72 1012.9
20260507213548 8 261 9.7 25.7 0.00 0.00 0.00 71 1012.9
20260507213102 8 200 12.9 30.6 0.00 0.00 0.00 71 1012.8
20260507212550 8 167 14.5 30.6 0.00 0.00 0.00 71 1012.8
20260507212048 8 224 12.9 30.6 0.00 0.00 0.00 71 1012.7
20260507211554 8 159 14.5 30.6 0.00 0.00 0.00 71 1012.6
20260507211048 8 192 12.9 27.4 0.00 0.00 0.00 71 1012.7
20260507210548 8 227 11.3 27.4 0.00 0.00 0.00 70 1012.7
20260507210051 8 205 9.7 27.4 0.00 0.00 0.00 70 1012.9
20260507205550 8 227 12.9 25.7 0.00 0.00 0.00 70 1013.0
20260507205048 8 179 9.7 24.1 0.00 0.00 0.00 70 1013.0
20260507204553 8 182 8.0 22.5 0.00 0.00 0.00 70 1013.0
20260507204048 8 173 8.0 22.5 0.00 0.00 0.00 70 1012.9
20260507203552 8 240 4.8 22.5 0.00 0.00 0.00 70 1013.0
20260507203051 8 171 6.4 19.3 0.00 0.00 0.00 69 1013.0
20260507202552 8 175 6.4 12.9 0.00 0.00 0.00 69 1013.1
20260507202050 8 202 4.8 14.5 0.00 0.00 0.00 69 1013.1
20260507201550 8 210 1.6 14.5 0.00 0.00 0.00 69 1013.0
20260507201048 8 173 3.2 11.3 0.00 0.00 0.00 69 1013.0
20260507200550 8 205 4.8 16.1 0.00 0.00 0.00 68 1013.0
20260507200057 8 198 6.4 17.7 0.00 0.00 0.00 68 1013.0
20260507195546 8 218 9.7 17.7 0.00 0.00 0.00 68 1013.0
20260507195047 8 213 8.0 14.5 0.00 0.00 0.00 68 1012.9
20260507194617 8 213 6.4 17.7 0.00 0.00 0.00 68 1012.8
20260507194050 9 211 4.8 19.3 0.00 0.00 0.00 67 1012.8
20260507193550 9 202 9.7 19.3 0.00 0.00 0.00 67 1012.8
20260507193055 9 196 8.0 19.3 0.00 0.00 0.00 67 1012.8
20260507192550 9 160 8.0 19.3 0.00 0.00 0.00 67 1012.8
20260507192049 9 183 6.4 16.1 0.00 0.00 0.00 66 1012.8
20260507191554 9 209 6.4 17.7 0.00 0.00 0.00 66 1012.9
20260507191051 9 185 6.4 17.7 0.00 0.00 0.00 66 1012.8
20260507190550 9 218 9.7 17.7 0.00 0.00 0.00 66 1012.7
20260507190100 9 185 9.7 17.7 0.00 0.00 0.00 65 1012.9
20260507185550 10 215 8.0 16.1 0.00 0.00 0.00 65 1012.8
20260507185051 10 212 6.4 17.7 0.00 0.00 0.00 64 1012.8
20260507184554 10 165 8.0 19.3 0.00 0.00 0.00 64 1012.8
20260507184050 10 195 9.7 19.3 0.00 0.00 0.00 64 1012.6
20260507183550 10 236 8.0 24.1 0.00 0.00 0.00 63 1012.5
20260507183056 10 209 8.0 25.7 0.00 0.00 0.00 63 1012.5
20260507182550 10 225 9.7 25.7 0.00 0.00 0.00 62 1012.6
20260507182052 10 188 11.3 22.5 0.00 0.00 0.00 61 1012.4
20260507181558 10 181 8.0 30.6 0.00 0.00 0.00 61 1012.3
20260507181049 10 211 9.7 30.6 0.00 0.00 0.00 61 1012.3
20260507180552 10 188 14.5 30.6 0.00 0.00 0.00 60 1012.3
20260507180055 10 195 12.9 25.7 0.00 0.00 0.00 60 1012.2
20260507175549 10 227 9.7 30.6 0.00 0.00 0.00 60 1012.2
20260507175049 10 218 12.9 30.6 0.00 0.00 0.00 60 1012.3
20260507174601 10 207 14.5 27.4 0.00 0.00 0.00 61 1012.2
20260507174048 10 213 9.7 22.5 0.00 0.00 0.00 60 1012.2
20260507173550 10 182 11.3 32.2 0.00 0.00 0.00 59 1012.2
20260507173127 10 203 12.9 35.4 0.00 0.00 0.00 58 1012.1
20260507172550 11 192 12.9 37.0 0.00 0.00 0.00 57 1012.0
20260507172049 11 215 16.1 37.0 0.00 0.00 0.00 56 1012.0
20260507171608 11 227 16.1 30.6 0.00 0.00 0.00 56 1012.1
20260507171050 11 242 14.5 25.7 0.00 0.00 0.00 57 1012.1
20260507170550 11 245 11.3 25.7 0.00 0.00 0.00 56 1012.3
20260507170110 11 210 9.7 32.2 0.00 0.00 0.00 57 1012.4
20260507165549 11 189 11.3 32.2 0.00 0.00 0.00 58 1012.4
20260507165049 11 148 12.9 27.4 0.00 0.00 0.00 58 1012.4
20260507164559 11 178 12.9 27.4 0.00 0.00 0.00 58 1012.4
20260507164050 11 190 11.3 27.4 0.00 0.00 0.00 57 1012.5
20260507163550 11 213 8.0 24.1 0.00 0.00 0.00 56 1012.6
20260507163054 11 208 11.3 24.1 0.00 0.00 0.00 56 1012.5
20260507162550 11 182 9.7 25.7 0.00 0.00 0.00 57 1012.5
20260507162049 11 203 12.9 25.7 0.00 0.00 0.00 56 1012.5
20260507161604 11 217 11.3 29.0 0.00 0.00 0.00 57 1012.5
20260507161046 11 236 11.3 29.0 0.00 0.00 0.00 56 1012.5
20260507160549 11 198 16.1 25.7 0.00 0.00 0.00 55 1012.5
20260507160051 11 200 11.3 29.0 0.00 0.00 0.00 55 1012.6
20260507155545 11 195 12.9 29.0 0.00 0.00 0.00 55 1012.6
20260507155048 11 237 11.3 37.0 0.00 0.00 0.00 54 1012.6
20260507154554 11 181 16.1 37.0 0.00 0.00 0.00 54 1012.7
20260507154050 11 189 12.9 25.7 0.00 0.00 0.00 53 1012.6
20260507153549 11 183 12.9 25.7 0.00 0.00 0.00 53 1012.6
20260507153057 11 202 12.9 24.1 0.00 0.00 0.00 54 1012.7
20260507152548 11 169 11.3 20.9 0.00 0.00 0.00 55 1012.6
20260507152049 11 192 11.3 24.1 0.00 0.00 0.00 55 1012.5
20260507151551 11 196 8.0 25.7 0.00 0.00 0.00 56 1012.6
20260507151047 11 230 9.7 27.4 0.00 0.00 0.00 56 1012.7
20260507150548 11 174 11.3 27.4 0.00 0.00 0.00 57 1012.7
20260507150100 11 185 9.7 27.4 0.00 0.00 0.00 58 1012.8
20260507145549 11 234 14.5 27.4 0.00 0.00 0.00 58 1012.8
20260507145049 11 168 11.3 24.1 0.00 0.00 0.00 59 1012.8
20260507144557 11 186 8.0 22.5 0.00 0.00 0.00 60 1012.8
20260507144049 10 176 11.3 33.8 0.00 0.00 0.00 60 1012.8
20260507143545 10 204 11.3 33.8 0.00 0.00 0.00 61 1012.8
20260507143059 10 217 14.5 27.4 0.00 0.00 0.00 61 1012.8
20260507142548 10 239 8.0 24.1 0.00 0.00 0.00 62 1013.0
20260507142049 10 180 12.9 27.4 0.00 0.00 0.00 62 1012.9
20260507141628 10 178 16.1 27.4 0.00 0.00 0.00 62 1013.1
20260507141051 10 161 9.7 27.4 0.00 0.00 0.00 62 1013.1
20260507140547 10 206 12.9 27.4 0.00 0.00 0.00 62 1013.1
20260507140051 10 205 11.3 33.8 0.00 0.00 0.00 63 1013.2
20260507135546 10 148 12.9 33.8 0.00 0.00 0.00 62 1013.3
20260507135047 9 194 14.5 30.6 0.00 0.00 0.00 63 1013.5
20260507134559 10 198 9.7 30.6 0.00 0.00 0.00 63 1013.4
20260507134045 9 189 14.5 27.4 0.00 0.00 0.00 63 1013.4
20260507133549 9 215 8.0 30.6 0.00 0.00 0.00 64 1013.2
20260507133104 9 239 12.9 35.4 0.00 0.00 0.00 64 1013.3
20260507132545 9 237 11.3 35.4 0.00 0.00 0.00 64 1013.3
20260507132049 9 227 14.5 35.4 0.00 0.00 0.00 64 1013.3
20260507131555 9 238 16.1 35.4 0.00 0.00 0.00 64 1013.2
20260507131050 9 214 17.7 30.6 0.00 0.00 0.00 63 1013.1
20260507130550 9 197 14.5 30.6 0.00 0.00 0.00 63 1013.2
20260507130054 9 221 16.1 32.2 0.00 0.00 0.00 63 1013.2
20260507125551 9 213 16.1 32.2 0.00 0.00 0.00 63 1013.1
20260507125049 9 242 14.5 27.4 0.00 0.00 0.00 63 1013.2
20260507124554 9 213 12.9 32.2 0.00 0.00 0.00 63 1013.2
20260507124049 9 207 14.5 32.2 0.00 0.00 0.00 63 1013.1
20260507123550 9 209 12.9 29.0 0.00 0.00 0.00 64 1013.2
20260507123055 8 186 8.0 29.0 0.00 0.00 0.00 66 1013.2
20260507122549 8 189 11.3 29.0 0.00 0.00 0.00 66 1013.3
20260507122047 8 180 8.0 25.7 0.00 0.00 0.00 66 1013.3
20260507121555 8 182 12.9 24.1 0.00 0.00 0.00 67 1013.5
20260507121051 8 208 8.0 24.1 0.00 0.00 0.00 67 1013.4
20260507120551 8 209 8.0 29.0 0.00 0.00 0.00 68 1013.4
20260507115550 7 150 9.7 29.0 0.00 0.00 0.00 69 1013.5
20260507115054 7 198 9.7 29.0 0.00 0.00 0.00 69 1013.5
20260507114605 7 198 11.3 24.1 0.00 0.00 0.00 69 1013.5
20260507114052 7 161 11.3 27.4 0.00 0.00 0.00 69 1013.7
20260507113551 7 200 11.3 29.0 0.00 0.00 0.00 69 1013.6
20260507113054 7 194 14.5 29.0 0.00 0.00 0.00 68 1013.7
20260507112550 7 153 11.3 32.2 0.00 0.00 0.00 69 1013.7
20260507112050 7 209 12.9 32.2 0.00 0.00 0.00 69 1013.7
20260507111552 7 195 6.4 20.9 0.00 0.00 0.00 69 1013.7
20260507111047 7 190 8.0 24.1 0.00 0.00 0.00 68 1013.8
20260507110551 7 180 6.4 25.7 0.00 0.00 0.00 67 1013.8
20260507105549 7 206 11.3 22.5 0.00 0.00 0.00 66 1014.0
20260507105050 7 203 8.0 20.9 0.00 0.00 0.00 66 1014.1
20260507104554 8 234 8.0 19.3 0.00 0.00 0.00 65 1014.0
20260507104051 8 239 6.4 16.1 0.00 0.00 0.00 64 1014.1
20260507103551 8 217 4.8 16.1 0.00 0.00 0.00 64 1014.0
20260507103053 8 208 3.2 16.1 0.00 0.00 0.00 65 1014.0
20260507102550 8 191 6.4 16.1 0.00 0.00 0.00 64 1014.1
20260507102048 8 175 4.8 22.5 0.00 0.00 0.00 65 1014.1
20260507101558 8 216 9.7 22.5 0.00 0.00 0.00 64 1014.1
20260507101050 8 186 4.8 16.1 0.00 0.00 0.00 63 1014.0
20260507100546 8 223 6.4 17.7 0.00 0.00 0.00 64 1014.0
20260507100051 8 221 6.4 17.7 0.00 0.00 0.00 64 1014.0
20260507095546 8 191 6.4 17.7 0.00 0.00 0.00 64 1014.0
20260507095049 8 166 6.4 17.7 0.00 0.00 0.00 64 1013.9
20260507094556 8 192 9.7 17.7 0.00 0.00 0.00 63 1013.8
20260507094048 9 201 4.8 17.7 0.00 0.00 0.00 65 1014.0
20260507093548 9 233 4.8 14.5 0.00 0.00 0.00 64 1013.9
20260507093052 9 200 4.8 14.5 0.00 0.00 0.00 64 1013.8
20260507092549 9 246 6.4 14.5 0.00 0.00 0.00 64 1013.7
20260507092049 9 194 4.8 16.1 0.00 0.00 0.00 64 1013.8
20260507091549 9 215 3.2 16.1 0.00 0.00 0.00 64 1013.7
20260507091048 8 221 6.4 22.5 0.00 0.00 0.00 64 1013.7
20260507090550 8 194 8.0 22.5 0.00 0.00 0.00 63 1013.7
20260507090055 8 200 3.2 16.1 0.00 0.00 0.00 64 1013.8
20260507085546 8 179 4.8 16.1 0.00 0.00 0.00 63 1013.7
20260507085047 8 207 8.0 17.7 0.00 0.00 0.00 63 1013.8
20260507084550 8 196 8.0 17.7 0.00 0.00 0.00 63 1013.7
20260507084047 9 211 6.4 30.6 0.00 0.00 0.00 64 1013.7
20260507083549 8 201 11.3 30.6 0.00 0.00 0.00 63 1013.7
20260507083051 9 193 11.3 22.5 0.00 0.00 0.00 64 1013.8
20260507082548 9 178 8.0 22.5 0.00 0.00 0.00 64 1013.8
20260507082047 8 234 6.4 19.3 0.00 0.00 0.00 64 1013.8
20260507081552 8 206 1.6 14.5 0.00 0.00 0.00 65 1013.7
20260507081050 8 204 6.4 14.5 0.00 0.00 0.00 66 1013.7
20260507080547 8 104 3.2 12.9 0.00 0.00 0.00 66 1013.8
20260507080052 8 163 4.8 12.9 0.00 0.00 0.00 67 1013.7
20260507075547 7 217 3.2 8.0 0.00 0.00 0.00 68 1013.9
20260507075052 7 213 1.6 12.9 0.00 0.00 0.00 68 1013.9
20260507074554 7 166 3.2 14.5 0.00 0.00 0.00 68 1014.0
20260507074046 7 157 6.4 14.5 0.00 0.00 0.00 68 1014.0
20260507073550 7 186 4.8 11.3 0.00 0.00 0.00 69 1013.8
20260507073128 7 196 1.6 16.1 0.00 0.00 0.00 69 1013.8
20260507072547 6 149 4.8 16.1 0.00 0.00 0.00 70 1013.9
20260507072128 6 29 3.2 8.0 0.00 0.00 0.00 71 1013.8
20260507071552 6 69 1.6 6.4 0.00 0.00 0.00 71 1013.9
20260507071050 6 0 0.0 11.3 0.00 0.00 0.00 71 1013.8
20260507070550 6 119 1.6 11.3 0.00 0.00 0.00 71 1013.8
20260507070053 6 201 3.2 22.5 0.00 0.00 0.00 70 1013.8
20260507065549 5 179 6.4 22.5 0.00 0.00 0.00 70 1013.8
20260507065049 5 130 1.6 14.5 0.00 0.00 0.00 70 1013.8
20260507064608 5 229 3.2 17.7 0.00 0.00 0.00 70 1013.8
20260507064052 5 197 3.2 17.7 0.00 0.00 0.00 70 1013.8
20260507063550 5 161 6.4 14.5 0.00 0.00 0.00 70 1013.8
20260507063057 5 146 1.6 9.7 0.00 0.00 0.00 71 1013.9
20260507062550 5 202 1.6 11.3 0.00 0.00 0.00 72 1013.9
20260507062050 5 0 1.6 11.3 0.00 0.00 0.00 72 1013.8
20260507061553 4 188 1.6 11.3 0.00 0.00 0.00 74 1013.9
20260507061049 3 43 3.2 6.4 0.00 0.00 0.00 74 1013.8
20260507060549 3 43 0.0 6.4 0.00 0.00 0.00 75 1013.9
20260507060054 3 0 0.0 3.2 0.00 0.00 0.00 76 1013.9
20260507055550 3 0 0.0 6.4 0.00 0.00 0.00 76 1013.9
20260507055049 3 0 3.2 6.4 0.00 0.00 0.00 77 1014.0
20260507054553 3 57 1.6 4.8 0.00 0.00 0.00 77 1014.0
20260507054049 3 57 0.0 4.8 0.00 0.00 0.00 77 1014.0
20260507053550 2 57 0.0 6.4 0.00 0.00 0.00 77 1014.0
20260507053055 2 0 1.6 6.4 0.00 0.00 0.00 77 1014.0
20260507052550 2 63 0.0 3.2 0.00 0.00 0.00 77 1013.9
20260507052050 2 63 0.0 6.4 0.00 0.00 0.00 76 1014.0
20260507051553 3 0 1.6 8.0 0.00 0.00 0.00 74 1014.0
20260507051049 3 62 3.2 8.0 0.00 0.00 0.00 73 1014.0
20260507050550 3 0 0.0 6.4 0.00 0.00 0.00 72 1014.0
20260507050058 3 0 0.0 11.3 0.00 0.00 0.00 71 1013.9
20260507045550 3 231 3.2 16.1 0.00 0.00 0.00 71 1013.9
20260507045047 3 176 4.8 16.1 0.00 0.00 0.00 72 1014.0
20260507044601 3 191 4.8 14.5 0.00 0.00 0.00 73 1014.1
20260507044051 3 128 1.6 6.4 0.00 0.00 0.00 74 1013.9
20260507043550 3 131 1.6 6.4 0.00 0.00 0.00 75 1014.1
20260507043055 2 134 3.2 6.4 0.00 0.00 0.00 77 1014.1
20260507042550 2 145 1.6 4.8 0.00 0.00 0.00 78 1014.2
20260507042050 2 0 0.0 3.2 0.00 0.00 0.00 77 1014.2
20260507041600 2 145 0.0 3.2 0.00 0.00 0.00 76 1014.1
20260507041050 2 0 0.0 3.2 0.00 0.00 0.00 76 1014.1
20260507040549 2 0 0.0 3.2 0.00 0.00 0.00 75 1013.9
20260507040104 2 145 0.0 3.2 0.00 0.00 0.00 74 1014.0
20260507035550 3 0 0.0 1.6 0.00 0.00 0.00 72 1014.0
20260507035050 3 0 0.0 1.6 0.00 0.00 0.00 70 1014.0
20260507034612 4 0 0.0 11.3 0.00 0.00 0.00 70 1014.2
20260507034050 4 0 1.6 11.3 0.00 0.00 0.00 69 1014.0
20260507033550 4 173 3.2 8.0 0.00 0.00 0.00 70 1014.1
20260507033105 4 151 3.2 8.0 0.00 0.00 0.00 70 1014.2
20260507032552 4 0 3.2 8.0 0.00 0.00 0.00 70 1014.3
20260507032046 4 0 1.6 11.3 0.00 0.00 0.00 69 1014.3
20260507031552 4 185 3.2 11.3 0.00 0.00 0.00 68 1014.3
20260507031050 4 190 3.2 12.9 0.00 0.00 0.00 68 1014.3
20260507030546 4 210 6.4 12.9 0.00 0.00 0.00 68 1014.4
20260507030053 4 208 4.8 14.5 0.00 0.00 0.00 68 1014.3
20260507025547 4 227 6.4 14.5 0.00 0.00 0.00 69 1014.4
20260507025047 4 217 4.8 11.3 0.00 0.00 0.00 69 1014.5
20260507024558 4 199 3.2 9.7 0.00 0.00 0.00 69 1014.4
20260507024051 4 184 3.2 8.0 0.00 0.00 0.00 70 1014.4
20260507023551 3 163 3.2 8.0 0.00 0.00 0.00 71 1014.4
20260507023053 3 170 1.6 4.8 0.00 0.00 0.00 73 1014.4
20260507022548 3 55 0.0 4.8 0.00 0.00 0.00 75 1014.3
20260507022050 3 61 0.0 3.2 0.00 0.00 0.00 76 1014.4
20260507021604 3 0 0.0 4.8 0.00 0.00 0.00 76 1014.4
20260507021050 3 0 0.0 4.8 0.00 0.00 0.00 76 1014.3
20260507020550 3 61 0.0 3.2 0.00 0.00 0.00 76 1014.4
20260507020052 3 0 1.6 3.2 0.00 0.00 0.00 76 1014.3
20260507015549 3 61 0.0 3.2 0.00 0.00 0.00 76 1014.4
20260507015049 2 61 0.0 1.6 0.00 0.00 0.00 77 1014.3
20260507014553 2 0 0.0 4.8 0.00 0.00 0.00 77 1014.4
20260507014047 2 0 0.0 4.8 0.00 0.00 0.00 77 1014.4
20260507013547 2 61 0.0 4.8 0.00 0.00 0.00 76 1014.5
20260507013106 2 0 0.0 0.0 0.00 0.00 0.00 77 1014.5
20260507012550 2 0 0.0 0.0 0.00 0.00 0.00 77 1014.5
20260507012048 2 0 0.0 3.2 0.00 0.00 0.00 77 1014.6
20260507011551 2 0 0.0 3.2 0.00 0.00 0.00 76 1014.6
20260507011050 2 0 0.0 3.2 0.00 0.00 0.00 77 1014.6
20260507010550 2 0 0.0 0.0 0.00 0.00 0.00 76 1014.7
20260507010054 2 0 0.0 1.6 0.00 0.00 0.00 76 1014.8
20260507005553 2 0 0.0 1.6 0.00 0.00 0.00 75 1014.9
20260507005049 2 0 0.0 1.6 0.00 0.00 0.00 75 1014.9
20260507004554 2 0 0.0 3.2 0.00 0.00 0.00 75 1014.9
20260507004048 2 0 0.0 4.8 0.00 0.00 0.00 74 1014.9
20260507003548 2 61 0.0 4.8 0.00 0.00 0.00 73 1014.9
20260507003051 2 61 0.0 3.2 0.00 0.00 0.00 73 1015.0
20260507002547 2 61 0.0 3.2 0.00 0.00 0.00 73 1015.0
20260507002047 2 0 0.0 1.6 0.00 0.00 0.00 73 1015.1
20260507001609 2 0 0.0 3.2 0.00 0.00 0.00 73 1015.2
20260507001051 2 0 0.0 4.8 0.00 0.00 0.00 73 1015.2
20260507000547 2 61 1.6 6.4 0.00 0.00 0.00 73 1015.2
20260507000053 2 61 1.6 6.4 0.00 0.00 0.00 72 1015.2
20260506235547 2 62 0.0 6.4 0.00 0.00 0.00 72 1015.1
20260506235050 3 0 0.0 8.0 0.00 0.00 0.00 71 1015.1
20260506234600 3 61 1.6 12.9 0.00 0.00 0.00 70 1015.1
20260506234050 3 112 3.2 14.5 0.00 0.00 0.00 70 1015.2
20260506233550 3 90 3.2 14.5 0.00 0.00 0.00 70 1015.1
20260506233056 3 133 4.8 14.5 0.00 0.00 0.00 70 1015.3